TimePST,TemperatureF,Dew PointF,Humidity,Sea Level PressureIn,VisibilityMPH,Wind Direction,Wind SpeedMPH,Gust SpeedMPH,PrecipitationIn,Events,Conditions,WindDirDegrees,DateUTC
12:15 AM,48.2,44.6,87,30.45,5.0,ESE,4.6,-,N/A,,Scattered Clouds,120,2013-11-13 08:15:00
12:35 AM,46.4,44.6,93,30.45,4.0,Calm,Calm,-,N/A,,Mostly Cloudy,0,2013-11-13 08:35:00
12:55 AM,46.4,42.8,87,30.45,5.0,Calm,Calm,-,N/A,,Mostly Cloudy,0,2013-11-13 08:55:00
1:15 AM,46.4,42.8,87,30.46,3.0,North,-9999.0,-,N/A,,Overcast,0,2013-11-13 09:15:00
1:35 AM,46.4,42.8,87,30.45,5.0,North,-9999.0,-,N/A,,Overcast,0,2013-11-13 09:35:00
1:55 AM,46.4,42.8,87,30.46,5.0,North,-9999.0,-,N/A,,Scattered Clouds,0,2013-11-13 09:55:00
2:15 AM,44.6,41.0,87,30.46,0.5,North,-9999.0,-,N/A,,Mostly Cloudy,0,2013-11-13 10:15:00
2:35 AM,44.6,41.0,87,30.46,2.5,Calm,Calm,-,N/A,,Overcast,0,2013-11-13 10:35:00
2:55 AM,46.4,42.8,87,30.46,3.0,North,-9999.0,-,N/A,,Overcast,0,2013-11-13 10:55:00
3:15 AM,46.4,42.8,87,30.45,7.0,South,5.8,-,N/A,,Scattered Clouds,180,2013-11-13 11:15:00
3:35 AM,46.4,42.8,87,30.47,6.0,North,-9999.0,-,N/A,,Mostly Cloudy,0,2013-11-13 11:35:00
3:55 AM,44.6,42.8,93,30.47,5.0,North,-9999.0,-,N/A,,Overcast,0,2013-11-13 11:55:00
4:15 AM,46.4,42.8,87,30.47,7.0,Calm,Calm,-,N/A,,Overcast,0,2013-11-13 12:15:00
4:35 AM,46.4,44.6,93,30.47,3.0,ESE,5.8,-,N/A,,Overcast,120,2013-11-13 12:35:00
4:55 AM,48.2,44.6,87,30.47,5.0,SE,5.8,-,N/A,,Overcast,140,2013-11-13 12:55:00
5:15 AM,48.2,44.6,87,30.48,5.0,SE,4.6,-,N/A,,Overcast,130,2013-11-13 13:15:00
5:35 AM,48.2,46.4,93,30.47,2.5,SE,6.9,-,N/A,,Overcast,130,2013-11-13 13:35:00
5:55 AM,48.2,44.6,87,30.48,7.0,South,6.9,-,N/A,,Overcast,170,2013-11-13 13:55:00
6:15 AM,46.4,44.6,93,30.48,10.0,SE,4.6,-,N/A,,Overcast,140,2013-11-13 14:15:00
6:35 AM,48.2,44.6,87,30.48,10.0,SE,5.8,-,N/A,,Overcast,140,2013-11-13 14:35:00
6:55 AM,48.2,46.4,93,30.48,6.0,SSE,4.6,-,N/A,,Overcast,150,2013-11-13 14:55:00
7:15 AM,48.2,44.6,87,30.48,5.0,SE,6.9,-,N/A,,Overcast,140,2013-11-13 15:15:00
7:35 AM,48.2,46.4,93,30.49,2.5,North,-9999.0,-,N/A,,Overcast,0,2013-11-13 15:35:00
7:55 AM,48.2,46.4,93,30.49,1.8,SSE,5.8,-,N/A,,Overcast,150,2013-11-13 15:55:00
8:15 AM,48.2,46.4,93,30.49,0.8,SSE,5.8,-,N/A,,Overcast,150,2013-11-13 16:15:00
8:35 AM,48.2,46.4,93,30.49,3.0,SSE,4.6,-,N/A,,Overcast,160,2013-11-13 16:35:00
8:55 AM,48.2,46.4,93,30.50,7.0,SSE,3.5,-,N/A,,Overcast,160,2013-11-13 16:55:00
9:15 AM,50.0,46.4,87,30.49,4.0,North,-9999.0,-,N/A,,Overcast,0,2013-11-13 17:15:00
9:35 AM,50.0,46.4,87,30.49,2.0,North,-9999.0,-,N/A,,Overcast,0,2013-11-13 17:35:00
9:55 AM,50.0,46.4,87,30.50,2.5,North,-9999.0,-,N/A,,Overcast,0,2013-11-13 17:55:00
10:15 AM,51.8,46.4,82,30.50,4.0,South,5.8,-,N/A,,Overcast,170,2013-11-13 18:15:00
10:35 AM,51.8,46.4,82,30.50,5.0,SE,5.8,-,N/A,,Overcast,140,2013-11-13 18:35:00
10:55 AM,51.8,46.4,82,30.51,8.0,North,-9999.0,-,N/A,,Overcast,0,2013-11-13 18:55:00
11:15 AM,53.6,46.4,77,30.50,9.0,North,-9999.0,-,N/A,,Overcast,0,2013-11-13 19:15:00
11:35 AM,53.6,46.4,77,30.49,10.0,North,-9999.0,-,N/A,,Scattered Clouds,0,2013-11-13 19:35:00
11:55 AM,53.6,46.4,77,30.48,10.0,North,-9999.0,-,N/A,,Clear,0,2013-11-13 19:55:00
12:15 PM,55.4,46.4,72,30.48,10.0,SSE,5.8,-,N/A,,Clear,160,2013-11-13 20:15:00
12:35 PM,55.4,46.4,72,30.47,10.0,South,5.8,-,N/A,,Clear,170,2013-11-13 20:35:00
12:55 PM,55.4,46.4,72,30.47,10.0,North,-9999.0,-,N/A,,Partly Cloudy,0,2013-11-13 20:55:00
1:15 PM,55.4,46.4,72,30.47,10.0,South,5.8,-,N/A,,Mostly Cloudy,170,2013-11-13 21:15:00
1:35 PM,55.4,46.4,72,30.46,10.0,South,6.9,-,N/A,,Mostly Cloudy,180,2013-11-13 21:35:00
1:55 PM,55.4,46.4,72,30.46,10.0,SSE,4.6,-,N/A,,Scattered Clouds,160,2013-11-13 21:55:00
2:15 PM,57.2,46.4,67,30.45,10.0,SSE,5.8,-,N/A,,Mostly Cloudy,150,2013-11-13 22:15:00
2:35 PM,57.2,46.4,67,30.45,10.0,South,5.8,-,N/A,,Mostly Cloudy,170,2013-11-13 22:35:00
2:55 PM,57.2,46.4,67,30.46,10.0,South,5.8,-,N/A,,Overcast,180,2013-11-13 22:55:00
3:15 PM,55.4,46.4,72,30.46,10.0,South,3.5,-,N/A,,Overcast,170,2013-11-13 23:15:00
3:35 PM,55.4,46.4,72,30.46,10.0,South,3.5,-,N/A,,Overcast,170,2013-11-13 23:35:00
3:55 PM,55.4,46.4,72,30.45,10.0,South,3.5,-,N/A,,Overcast,170,2013-11-13 23:55:00
4:15 PM,55.4,46.4,72,30.45,10.0,SSE,3.5,-,N/A,,Mostly Cloudy,150,2013-11-14 00:15:00
4:35 PM,53.6,44.6,72,30.45,10.0,Calm,Calm,-,N/A,,Scattered Clouds,0,2013-11-14 00:35:00
4:55 PM,53.6,44.6,72,30.43,10.0,Calm,Calm,-,N/A,,Clear,0,2013-11-14 00:55:00
5:15 PM,50.0,44.6,82,30.43,10.0,Calm,Calm,-,N/A,,Clear,0,2013-11-14 01:15:00
5:35 PM,48.2,44.6,87,30.43,10.0,Calm,Calm,-,N/A,,Clear,0,2013-11-14 01:35:00
5:55 PM,48.2,44.6,87,30.44,10.0,Calm,Calm,-,N/A,,Clear,0,2013-11-14 01:55:00
6:15 PM,46.4,42.8,87,30.44,10.0,Calm,Calm,-,N/A,,Clear,0,2013-11-14 02:15:00
6:35 PM,46.4,42.8,87,30.44,10.0,Calm,Calm,-,N/A,,Clear,0,2013-11-14 02:35:00
6:55 PM,46.4,42.8,87,30.42,10.0,Calm,Calm,-,N/A,,Clear,0,2013-11-14 02:55:00
7:15 PM,44.6,41.0,87,30.42,10.0,Calm,Calm,-,N/A,,Clear,0,2013-11-14 03:15:00
7:35 PM,44.6,39.2,81,30.41,10.0,Calm,Calm,-,N/A,,Clear,0,2013-11-14 03:35:00
7:55 PM,42.8,39.2,87,30.41,8.0,Calm,Calm,-,N/A,,Clear,0,2013-11-14 03:55:00
8:15 PM,44.6,39.2,81,30.39,10.0,Calm,Calm,-,N/A,,Clear,0,2013-11-14 04:15:00
8:35 PM,42.8,39.2,87,30.39,10.0,Calm,Calm,-,N/A,,Clear,0,2013-11-14 04:35:00
8:55 PM,42.8,39.2,87,30.39,8.0,Calm,Calm,-,N/A,,Clear,0,2013-11-14 04:55:00
9:15 PM,42.8,39.2,87,30.38,9.0,Calm,Calm,-,N/A,,Scattered Clouds,0,2013-11-14 05:15:00
9:35 PM,42.8,39.2,87,30.38,3.0,Calm,Calm,-,N/A,,Mostly Cloudy,0,2013-11-14 05:35:00
9:55 PM,44.6,41.0,87,30.37,2.5,Calm,Calm,-,N/A,,Overcast,0,2013-11-14 05:55:00
10:15 PM,46.4,42.8,87,30.37,0.5,Calm,Calm,-,N/A,,Overcast,0,2013-11-14 06:15:00
10:35 PM,46.4,44.6,93,30.36,0.8,Calm,Calm,-,N/A,,Overcast,0,2013-11-14 06:35:00
10:55 PM,46.4,44.6,93,30.36,4.0,NNW,5.8,-,N/A,,Overcast,330,2013-11-14 06:55:00
11:15 PM,46.4,44.6,93,30.36,10.0,NW,3.5,-,N/A,,Overcast,320,2013-11-14 07:15:00
11:35 PM,46.4,44.6,93,30.36,10.0,North,4.6,-,N/A,,Overcast,350,2013-11-14 07:35:00
11:55 PM,46.4,42.8,87,30.35,10.0,Calm,Calm,-,N/A,,Overcast,0,2013-11-14 07:55:00